Wind_Speed
15 17 19 20 22 24 26 27 29 31 32 34 36 37 38 38 37 37 37 36 35 34 34 33 32 31 31 31 31 30 29 28 26 24 23 21 19 17 17 17 18 21 25
12 14 15 17 19 21 23 24 26 28 30 33 35 37 39 41 42 42 42 42 41 40 39 38 37 36 35 34 34 34 32 32 31 29 27 25 22 20 19 18 18 19 21
11 12 14 16 18 20 21 23 24 26 27 29 32 35 37 39 41 43 44 45 45 45 44 43 42 41 39 38 37 37 36 35 35 34 31 29 26 24 22 21 20 19 20
13 14 16 18 19 21 23 24 26 27 29 30 32 33 35 37 38 40 42 44 46 47 47 47 47 45 44 43 42 41 40 39 38 38 36 34 31 28 26 25 23 22 21
14 16 18 19 21 23 25 26 28 30 31 33 34 35 36 37 39 40 41 43 44 46 48 49 50 50 49 48 47 45 44 43 42 41 40 39 36 33 31 29 27 25 24
18 20 22 24 26 28 30 32 34 35 36 38 39 40 41 42 42 42 43 44 45 45 46 48 50 51 52 52 51 50 49 47 46 45 44 43 41 39 36 34 31 29 28
24 26 29 31 34 36 38 40 42 44 46 47 48 48 49 49 49 49 49 49 49 48 48 48 49 51 53 54 54 53 53 52 50 49 48 47 45 43 41 39 36 33 31
30 33 35 38 41 43 46 49 51 53 55 56 57 58 58 59 59 58 57 56 55 54 53 52 52 51 52 54 56 56 56 55 54 53 52 50 49 48 46 44 41 38 36
35 38 41 44 47 50 53 56 58 61 63 65 66 67 67 67 67 67 66 65 63 61 60 58 57 56 55 55 56 58 58 58 57 56 55 53 52 51 51 49 46 43 40
40 44 47 50 53 57 60 63 66 69 71 72 74 75 75 75 75 74 74 73 71 69 66 64 63 62 60 59 58 58 60 61 60 59 58 56 55 54 54 54 52 49 46
46 49 52 56 59 62 65 68 71 73 76 78 79 81 82 82 82 81 80 79 77 76 73 71 68 67 65 64 63 62 61 62 63 62 60 59 58 56 57 57 56 53 51
50 53 57 60 63 66 69 71 74 77 79 82 84 85 86 87 88 88 87 85 83 81 79 77 74 72 70 69 68 67 65 64 63 65 64 62 61 59 58 59 59 57 55
54 58 61 64 67 70 73 76 79 81 84 87 90 91 92 92 92 92 92 91 89 86 84 82 80 77 74 72 72 72 70 69 67 66 66 66 64 62 60 60 61 60 58
58 61 64 67 71 74 77 80 84 87 90 93 96 98 99 99 98 97 97 96 94 92 90 87 85 82 80 77 75 75 74 73 72 70 68 68 68 65 63 62 61 61 60
60 63 67 71 74 77 80 83 87 91 95 98 101 101 101 100 98 96 93 92 91 91 90 89 88 86 84 82 80 78 78 77 76 74 72 70 70 69 67 65 63 62 61
63 67 71 73 76 79 83 88 92 96 98 98 95 91 87 85 83 82 81 80 80 82 84 85 85 85 85 84 84 82 81 81 80 78 76 74 72 72 72 69 67 65 63
67 71 74 76 79 83 88 92 95 96 92 87 81 76 73 71 69 69 69 70 71 72 74 76 78 80 81 82 83 85 85 84 83 82 80 79 76 74 75 74 72 70 67
72 75 77 79 83 87 91 93 93 88 82 77 73 71 69 68 67 66 64 64 65 66 68 69 70 72 75 78 81 85 87 87 87 86 85 83 81 79 77 77 77 75 73
76 78 80 83 86 89 91 88 83 79 75 73 72 71 69 68 66 64 62 60 60 61 63 66 67 67 69 72 76 81 86 89 91 91 89 87 85 83 80 79 79 79 77
78 80 82 85 87 88 86 80 75 73 72 72 71 69 66 63 61 59 58 56 56 56 58 61 65 68 67 68 70 76 82 88 92 94 93 91 90 88 85 82 80 80 80
80 82 84 86 87 85 79 74 71 70 70 70 67 64 61 58 56 54 53 52 52 53 54 55 59 65 68 68 68 70 75 83 90 95 96 95 93 91 89 86 82 80 80
81 82 84 86 85 80 75 73 71 71 70 67 62 58 56 53 51 50 48 48 47 48 50 52 54 58 65 69 69 68 70 74 83 90 96 98 96 94 93 90 86 82 79
81 83 85 85 81 76 73 72 71 69 66 60 54 51 50 49 48 47 46 45 44 44 44 46 49 52 56 64 70 70 69 70 73 81 90 97 98 97 96 93 90 85 81
81 83 84 82 77 73 73 72 71 67 60 54 50 48 50 51 50 49 47 46 44 43 42 42 44 48 51 56 64 70 71 70 69 73 81 90 97 99 98 95 93 89 85
82 84 83 78 74 72 73 72 69 63 56 51 49 50 52 53 54 53 51 49 48 46 44 43 41 43 46 50 56 65 72 72 71 70 73 83 92 97 99 97 94 92 89
82 82 80 75 72 72 72 70 66 59 53 50 51 52 53 54 55 56 55 53 51 48 46 45 43 42 42 46 50 58 67 73 74 71 69 74 85 94 99 99 96 93 92
Wind_Direction
281 281 281 281 280 280 279 277 274 272 271 270 270 269 268 267 264 260 256 253 251 251 251 250 248 247 247 248 248 248 248 248 247 247 246 242 236 231 226 226 228 230 228
295 293 291 289 287 284 281 278 276 274 272 271 270 269 268 267 266 264 261 258 255 252 251 250 249 248 247 247 247 247 247 246 246 245 243 240 236 231 227 225 225 227 227
311 307 302 298 294 291 289 288 286 284 282 279 276 273 271 269 267 266 264 261 259 256 253 250 249 249 248 246 246 246 245 244 244 243 241 239 235 231 227 223 222 225 226
317 313 310 307 305 303 301 300 298 296 293 290 287 283 279 276 273 270 268 265 262 259 256 252 250 248 248 247 246 245 245 243 241 240 240 238 235 232 229 224 221 222 224
327 323 320 317 314 311 308 306 303 301 298 295 293 290 288 285 281 278 275 271 268 264 260 256 252 249 247 247 246 245 243 243 241 239 238 237 235 233 231 228 223 223 223
329 324 320 316 312 308 305 302 299 296 294 292 290 289 287 285 283 281 279 276 273 270 266 262 257 253 250 247 246 245 243 242 241 239 237 236 235 234 233 231 227 226 225
323 319 315 312 308 306 303 300 298 296 294 292 290 289 287 285 283 280 278 276 274 272 270 267 263 259 254 250 247 244 243 241 240 239 237 235 235 234 234 233 231 229 229
318 315 312 310 307 305 303 302 300 298 297 295 293 291 289 287 285 282 279 276 274 271 269 267 265 262 259 254 250 247 243 241 240 239 238 236 234 234 234 235 233 231 231
314 313 312 310 309 307 305 304 302 300 298 296 294 292 291 289 287 284 281 278 275 272 269 266 264 262 260 258 254 250 247 243 241 239 238 237 235 234 234 235 234 232 231
316 314 313 311 310 308 306 304 302 300 298 296 294 292 291 289 287 285 282 280 277 274 270 266 263 260 258 257 255 253 250 246 242 239 238 238 236 234 234 234 234 233 231
316 314 313 311 309 307 305 303 301 300 298 295 293 292 290 288 286 284 282 279 277 274 271 267 263 259 256 254 253 251 250 248 245 241 238 237 236 234 234 234 234 233 232
315 314 312 310 308 306 305 303 302 300 298 296 294 291 289 287 285 283 281 278 276 274 271 268 264 260 256 252 250 249 248 247 246 244 240 237 236 234 234 234 234 234 232
315 314 313 311 309 308 306 304 303 301 299 297 294 292 289 286 283 281 279 276 274 272 269 266 264 260 256 251 248 246 245 245 244 243 242 238 235 234 233 234 234 235 233
317 316 315 313 311 309 307 305 304 302 299 297 294 291 289 287 284 282 279 276 274 272 269 266 262 259 256 252 247 244 243 242 242 241 241 239 236 233 232 232 233 235 235
319 318 316 314 312 310 309 307 305 303 300 296 294 292 290 289 287 285 282 279 276 272 269 266 263 259 255 251 248 243 240 239 239 239 239 238 237 233 231 231 231 233 234
320 319 317 314 313 312 310 309 306 303 300 299 299 297 295 291 288 284 281 278 274 271 268 265 262 258 255 251 247 243 239 237 236 236 236 236 236 234 231 230 230 230 231
322 320 318 317 316 315 313 311 308 306 306 306 304 302 299 295 291 287 282 278 273 268 264 261 259 255 252 248 245 241 238 235 234 234 233 233 233 233 231 229 228 229 229
324 323 322 320 319 317 315 312 312 312 311 310 308 306 304 301 297 292 287 281 276 269 263 258 255 253 249 245 241 239 237 234 231 231 231 231 231 230 230 229 228 228 228
327 326 324 323 321 318 316 316 316 316 315 313 311 309 306 303 299 295 290 284 279 273 265 258 252 250 247 244 240 236 234 232 230 228 228 229 228 228 228 227 227 227 228
329 327 326 324 321 319 319 320 319 318 316 314 313 311 308 304 301 296 291 286 281 276 270 262 253 248 245 243 239 235 232 230 228 227 226 226 226 226 226 225 226 227 228
330 328 326 324 322 321 321 321 320 319 317 316 315 313 311 308 305 301 296 290 283 278 272 267 258 249 244 241 238 235 232 230 228 226 225 224 224 224 224 223 223 225 227
330 328 326 325 324 324 324 323 323 321 320 320 319 317 316 314 311 307 302 296 289 281 274 269 264 255 247 242 238 234 231 231 228 226 225 223 222 222 222 222 221 222 224
330 328 327 326 326 326 325 325 325 324 323 323 322 321 320 318 316 312 307 301 295 287 279 272 265 260 251 244 239 234 230 229 229 227 225 223 221 220 220 220 220 219 221
331 330 329 328 328 327 327 328 327 327 326 326 325 324 323 320 318 314 310 305 299 292 285 278 270 262 255 247 241 235 231 228 227 228 226 223 221 219 218 218 219 218 219
332 331 330 329 329 329 330 330 330 329 329 329 328 326 323 320 317 313 309 304 300 294 287 281 275 267 257 250 242 237 232 228 226 226 227 225 222 220 217 216 216 217 217
334 332 331 330 331 331 332 332 332 331 330 329 327 326 323 319 316 312 308 303 298 294 287 281 275 270 261 252 244 237 232 228 225 224 224 226 223 220 218 216 214 215 217
Height
5875 5874 5873 5872 5871 5870 5868 5867 5866 5865 5864 5863 5862 5861 5860 5860 5859 5859 5858 5858 5857 5857 5857 5857 5856 5856 5856 5856 5856 5856 5857 5857 5858 5859 5859 5860 5861 5861 5861 5862 5863 5865 5866
5872 5871 5869 5868 5867 5865 5864 5862 5860 5859 5858 5856 5855 5854 5853 5852 5851 5851 5851 5851 5850 5850 5850 5850 5850 5850 5850 5850 5850 5851 5851 5852 5853 5854 5855 5856 5857 5858 5858 5859 5860 5862 5863
5870 5869 5867 5866 5864 5862 5860 5859 5857 5855 5853 5851 5849 5848 5846 5845 5843 5842 5841 5841 5841 5841 5842 5842 5842 5842 5843 5843 5843 5844 5845 5846 5847 5848 5850 5851 5853 5854 5855 5856 5857 5858 5860
5869 5867 5866 5863 5861 5859 5857 5855 5852 5850 5848 5846 5844 5842 5840 5838 5836 5834 5833 5832 5831 5831 5831 5832 5833 5833 5834 5835 5836 5837 5838 5839 5840 5842 5843 5846 5848 5849 5850 5851 5853 5854 5856
5868 5866 5863 5861 5858 5856 5853 5850 5848 5845 5842 5840 5837 5834 5832 5830 5828 5826 5824 5822 5822 5821 5820 5821 5822 5823 5824 5825 5826 5827 5829 5831 5832 5834 5836 5839 5841 5844 5845 5847 5848 5850 5852
5865 5863 5860 5857 5854 5851 5848 5845 5842 5839 5836 5833 5830 5827 5824 5821 5819 5816 5814 5813 5811 5811 5810 5810 5810 5811 5812 5814 5816 5817 5819 5821 5823 5826 5828 5831 5834 5836 5839 5841 5843 5845 5847
5862 5859 5855 5852 5848 5844 5841 5837 5833 5830 5826 5823 5820 5817 5814 5811 5808 5806 5803 5801 5800 5799 5799 5799 5799 5799 5800 5802 5804 5805 5807 5810 5813 5816 5819 5822 5825 5828 5831 5833 5836 5839 5842
5857 5854 5850 5845 5841 5836 5832 5827 5823 5818 5814 5811 5807 5804 5801 5797 5794 5792 5790 5788 5787 5786 5786 5786 5786 5787 5788 5789 5791 5793 5795 5799 5802 5806 5808 5812 5816 5819 5822 5825 5829 5832 5835
5852 5848 5843 5837 5832 5827 5821 5815 5810 5805 5800 5796 5792 5788 5784 5780 5777 5774 5772 5771 5771 5771 5771 5771 5771 5772 5774 5775 5777 5780 5783 5786 5790 5794 5798 5802 5806 5810 5813 5816 5820 5824 5828
5845 5839 5834 5828 5822 5816 5809 5803 5796 5790 5784 5779 5774 5770 5765 5761 5757 5755 5752 5751 5751 5752 5753 5753 5754 5755 5758 5760 5763 5765 5769 5772 5776 5781 5785 5790 5795 5800 5803 5806 5810 5815 5819
5837 5831 5825 5819 5813 5806 5799 5792 5784 5776 5769 5763 5757 5752 5745 5740 5735 5732 5729 5728 5728 5729 5730 5732 5734 5736 5739 5742 5745 5749 5753 5757 5763 5767 5772 5777 5782 5788 5792 5795 5800 5804 5809
5830 5824 5817 5810 5803 5795 5787 5778 5770 5761 5752 5744 5738 5732 5725 5718 5712 5708 5704 5703 5703 5704 5705 5707 5711 5715 5719 5723 5726 5731 5736 5741 5746 5752 5758 5763 5769 5775 5780 5784 5788 5793 5798
5822 5815 5807 5799 5789 5780 5771 5761 5752 5742 5732 5723 5714 5706 5699 5692 5686 5681 5677 5676 5676 5677 5678 5681 5684 5690 5695 5700 5705 5710 5717 5723 5729 5735 5742 5748 5755 5761 5767 5772 5777 5781 5787
5813 5805 5795 5785 5775 5764 5753 5743 5732 5721 5710 5699 5689 5679 5670 5662 5656 5651 5648 5646 5646 5646 5648 5652 5656 5662 5668 5675 5682 5688 5695 5702 5710 5718 5725 5732 5740 5747 5753 5759 5765 5770 5775
5803 5794 5784 5772 5761 5749 5737 5724 5711 5698 5685 5673 5661 5650 5641 5632 5625 5620 5615 5614 5614 5614 5616 5620 5625 5633 5640 5647 5656 5664 5672 5680 5689 5699 5708 5715 5723 5731 5738 5745 5752 5758 5763
5793 5783 5771 5758 5745 5731 5718 5704 5689 5673 5657 5643 5631 5620 5612 5604 5597 5591 5587 5584 5583 5583 5585 5588 5594 5601 5609 5618 5627 5637 5647 5657 5668 5678 5688 5697 5705 5714 5722 5730 5737 5745 5751
5781 5769 5756 5742 5727 5712 5697 5680 5663 5646 5631 5618 5606 5595 5586 5579 5572 5567 5562 5559 5557 5556 5557 5559 5563 5570 5578 5587 5598 5608 5620 5633 5645 5655 5666 5677 5686 5696 5705 5713 5722 5729 5737
5768 5754 5739 5724 5709 5692 5674 5656 5638 5623 5609 5597 5585 5575 5566 5558 5551 5545 5540 5537 5534 5532 5533 5535 5538 5543 5549 5558 5568 5579 5592 5606 5619 5631 5643 5654 5665 5676 5686 5696 5705 5713 5722
5753 5738 5723 5707 5691 5673 5655 5636 5619 5605 5591 5579 5568 5557 5548 5539 5530 5524 5519 5515 5512 5510 5509 5511 5515 5519 5525 5531 5541 5552 5564 5577 5592 5605 5618 5631 5643 5656 5667 5677 5687 5696 5705
5737 5722 5707 5691 5674 5656 5638 5622 5606 5591 5577 5564 5552 5540 5530 5521 5513 5505 5500 5496 5492 5490 5488 5488 5492 5496 5502 5508 5516 5526 5537 5549 5563 5577 5593 5607 5620 5633 5646 5658 5669 5678 5688
5723 5708 5692 5675 5658 5640 5624 5609 5596 5581 5567 5552 5538 5525 5515 5505 5497 5489 5483 5478 5474 5471 5469 5468 5469 5474 5480 5486 5495 5504 5514 5524 5535 5551 5566 5581 5596 5611 5625 5638 5650 5661 5671
5710 5694 5677 5659 5641 5624 5609 5594 5580 5565 5551 5536 5523 5511 5501 5492 5484 5476 5469 5463 5458 5455 5453 5451 5451 5453 5458 5464 5473 5484 5494 5503 5512 5526 5539 5555 5572 5588 5603 5617 5631 5643 5654
5697 5680 5662 5643 5626 5610 5595 5581 5567 5552 5537 5525 5513 5502 5491 5482 5473 5465 5458 5451 5445 5441 5438 5435 5434 5435 5439 5443 5450 5461 5472 5483 5493 5504 5515 5531 5547 5563 5580 5597 5612 5625 5637
5684 5665 5646 5628 5612 5597 5583 5568 5553 5539 5527 5515 5503 5493 5482 5472 5462 5454 5446 5439 5433 5428 5424 5421 5419 5418 5421 5425 5430 5439 5451 5462 5472 5484 5495 5508 5523 5540 5558 5576 5593 5607 5620
5671 5652 5633 5616 5601 5586 5570 5555 5540 5526 5514 5503 5493 5483 5472 5461 5450 5441 5433 5426 5419 5414 5410 5406 5404 5403 5404 5407 5412 5419 5430 5442 5453 5464 5475 5487 5502 5518 5536 5555 5573 5589 5602
5659 5640 5623 5606 5591 5575 5559 5544 5529 5516 5505 5494 5484 5474 5463 5451 5439 5428 5418 5410 5403 5398 5394 5391 5389 5387 5388 5390 5394 5400 5409 5422 5434 5447 5459 5467 5482 5498 5515 5533 5552 5569 5584